EUTELSAT 172B (42741 NORAD) Tracking and Keplerian Element Data

This shows tracking and keplerian element data for the satellite.

Feedback or suggestion? Click here.




ElementValue
Catalog42741
NameEUTELSAT 172B
Epoch Orbit721
Epoch Day81.65647392
Epoch Year2019
RAAN135.4027
Inclination0.014
Eccentricity2.19E-05
Argument of Perigee185.8111
Mean Anonmoly266.9509
Mean Motion1.00271772
Decay Rate-3.1E-07
L11 42741U 17029B 19081.65647392 -.00000031 00000-0 00000-0 0 9993
L22 42741 0.0140 135.4027 0000219 185.8111 266.9509 1.00271772 7218

Live tracking and technical data element details for EUTELSAT 172B (NORAD 42741). EUTELSAT 172B can be tracked NOW for your location showing map with azimuth and elevation plus other details from your city location.

Track the satellite on the map from your city or location and see movement details for azimuth, elevation, latitude, longitude, range, height, and movement on the map or in text.







IsCatalogInMostPopularTable: catalog: 42741, numindb: 222
Update: records affected: 1



GetName: 42741 EUTELSAT 172B

Hit Count: updated at: Sun, 24 Mar 2019 09:36:48 GMT